ROMMA est une association bénévole à but non lucratif. Votre soutien est indispensable : ADHERER à ROMMA ou FAIRE un DON

Recoubeau - (26, Drôme)

Diois (510 m)   Longitude: 5° 24' E   Latitude: 44° 39' N Station partenaire n°64
 

Détail journalier du     <<     >>

Température Precipitation Humidité Pression Vent Dir Rafale Dir. rafale
Heure (°C) (mm) (%) (hPa) (km/h) (km/h)
01:00 3.4087100400
02:00 2.9089100300
03:00 6.607510032ESE10E
04:00 9.106310026SE24SE
05:00 8.606410026ESE18SE
06:00 8.606410017SE21E
07:00 8.2064100013SSE27SE
08:00 7.706410019SE21SE
09:00 10.8049100110ESE19ESE
10:00 11.204810017ESE18SE
11:00 10.905110021OSO15ESE
12:00 12.1036100113SE44S
13:00 11.2044100218SE55ESE
14:00 11.3044100216SE45ESE
15:00 10.1056100317SE44SE
16:00 10.1060100312ESE31E
17:00 9.0070100411ESE29SSE
18:00 6.91.88410059SE23S
19:00 6.808610053SE16SE
20:00 7.3076100411SE27SE
21:00 7.507410055ESE21S
22:00 7.307510058SSE26SSE
23:00 6.907710057SE16SSE
minuit 6.807810054SSE13SE

Graphique du 06-04-2019

 

Serveur OMMA